Weather History for Clinton-Sherman, OK

Change the Weather History Date:

Friday, September 26, 2014

  Actual Average Record
Temperature  
Mean Temperature 72 °F -  
Max Temperature 86 °F 80 °F 95 °F (2013)
Min Temperature 61 °F 55 °F 41 °F (2000)
Cooling Degree Days 8    
Growing Degree Days 22 (Base 50)    
Moisture  
Dew Point 51 °F    
Average Humidity 50    
Maximum Humidity 78    
Minimum Humidity 27    
Precipitation  
Precipitation 0.00 in - - ()
Sea Level Pressure  
Sea Level Pressure 30.08 in    
Wind  
Wind Speed 9 mph (South)    
Max Wind Speed 13 mph    
Max Gust Speed 21 mph    
Visibility 10 miles    
Events      
Averages and records for this station are not official NWS values.
T = Trace of Precipitation, MM = Missing Value Source: NWS Daily Summary

Daily Weather History Graph

Daily Weather History Graph

Search for Another Location

Airport:

Trip Planner

Search our weather history database for the weather conditions in past years. The results will help you decide how hot, cold, wet, or windy it might be!

Date:

Astronomy

Sep. 26, 2014 Rise Set
Actual Time 7:27 AM CDT 7:27 PM CDT
Civil Twilight 7:02 AM CDT 7:53 PM CDT
Nautical Twilight 6:32 AM CDT 8:22 PM CDT
Astronomical Twilight 6:03 AM CDT 8:52 PM CDT
Moon 9:39 AM CDT (9/26) 8:55 PM CDT (9/26)
Length of Visible Light 12h 50m
Length of Day
11h 59m
Waxing Crescent, 6% of the Moon is Illuminated
Sep 26
Waxing Crescent
Oct 1
First Quarter
Oct 8
Full
Oct 15
Last Quarter
Oct 23
New

Hourly Weather History & Observations

Time (CDT) Temp. Heat Index Dew Point Humidity Pressure Visibility Wind Dir Wind Speed Gust Speed Precip Events Conditions
12:53 AM 66.0 °F - 48.0 °F 52% 30.11 in 10.0 mi South 9.2 mph - N/A   Clear
1:53 AM 66.0 °F - 48.9 °F 54% 30.10 in 10.0 mi South 8.1 mph - N/A   Clear
2:53 AM 64.9 °F - 52.0 °F 63% 30.10 in 10.0 mi South 9.2 mph - N/A   Clear
3:53 AM 64.9 °F - 53.1 °F 65% 30.10 in 10.0 mi South 9.2 mph - N/A   Clear
4:53 AM 62.1 °F - 53.1 °F 72% 30.11 in 10.0 mi SSE 6.9 mph - N/A   Clear
5:53 AM 62.1 °F - 53.1 °F 72% 30.11 in 10.0 mi South 8.1 mph - N/A   Clear
6:53 AM 61.0 °F - 53.1 °F 75% 30.12 in 10.0 mi SSW 8.1 mph - N/A   Clear
7:53 AM 61.0 °F - 54.0 °F 78% 30.13 in 10.0 mi South 6.9 mph - N/A   Clear
8:53 AM 66.9 °F - 55.0 °F 66% 30.13 in 10.0 mi South 12.7 mph - N/A   Clear
9:53 AM 72.0 °F - 53.1 °F 51% 30.13 in 10.0 mi South 11.5 mph - N/A   Clear
10:53 AM 75.9 °F - 53.1 °F 45% 30.13 in 10.0 mi South 9.2 mph - N/A   Clear
11:53 AM 80.1 °F 79.9 °F 53.1 °F 39% 30.12 in 10.0 mi SSW 11.5 mph - N/A   Clear
12:53 PM 82.9 °F - 48.0 °F 29% 30.10 in 10.0 mi South 11.5 mph 20.7 mph N/A   Clear
1:53 PM 82.9 °F - 46.9 °F 28% 30.08 in 10.0 mi South 11.5 mph - N/A   Clear
2:53 PM 84.9 °F - 46.9 °F 27% 30.06 in 10.0 mi South 12.7 mph 19.6 mph N/A   Clear
3:53 PM 84.9 °F - 48.0 °F 28% 30.04 in 10.0 mi South 9.2 mph - N/A   Clear
4:53 PM 84.9 °F - 48.0 °F 28% 30.03 in 10.0 mi South 11.5 mph 19.6 mph N/A   Clear
5:53 PM 84.9 °F - 46.9 °F 27% 30.01 in 10.0 mi SSW 12.7 mph - N/A   Clear
6:53 PM 82.0 °F - 48.9 °F 31% 30.02 in 10.0 mi South 6.9 mph - N/A   Clear
7:53 PM 75.0 °F - 53.1 °F 46% 30.03 in 10.0 mi SSE 6.9 mph - N/A   Clear
8:53 PM 73.0 °F - 53.1 °F 49% 30.04 in 10.0 mi SSE 6.9 mph - N/A   Clear
9:53 PM 71.1 °F - 53.1 °F 53% 30.04 in 10.0 mi SSE 9.2 mph - N/A   Clear
10:53 PM 71.1 °F - 54.0 °F 55% 30.05 in 10.0 mi SSE 11.5 mph - N/A   Clear
11:53 PM 70.0 °F - 55.0 °F 59% 30.05 in 10.0 mi SSE 11.5 mph - N/A   Clear